Location: Unspecified
(0.0000°N, 0.0000°E)
Time: 18:01:39
(UTC+00:00)

Envisat - Pass Details

Date: 23 September 2022
Orbit: 764 x 765 km, 98.2° (Epoch: 26 September)

Event Time Altitude Azimuth Distance (km) Brightness Sun altitude
Rises 03:43:42 0° 18° (NNE) 3,212 6.4 -32.2°
Reaches altitude 10° 03:46:01 10° 21° (NNE) 2,290 5.7 -31.6°
Enters shadow 03:49:48 48° 46° (NE) 990 3.7 -30.7°
